This is the latest recevied weather packets stored in our database for station/object N3WPH. If no packets are shown the sender has not sent any weather packets the latest 10 day(s).
| Time | Temp. | Humidity | Pressure | Rain* | Wind** | Luminosity | Snow |
|---|---|---|---|---|---|---|---|
| 1777814221 | 6.67° C | 62% | 1013.7 hPa | 0 mm | - | 463 W/m² | - |
| 1777813918 | 6.67° C | 64% | 1013.8 hPa | 0 mm | - | 468 W/m² | - |
| 1777813615 | 6.67° C | 62% | 1013.8 hPa | 0 mm | - | 346 W/m² | - |
| 1777813312 | 6.67° C | 65% | 1013.7 hPa | 0 mm | - | 435 W/m² | - |
| 1777813010 | 6.67° C | 66% | 1013.8 hPa | 0 mm | - | 234 W/m² | - |
| 1777812708 | 6.67° C | 66% | 1013.9 hPa | 0 mm | - | 163 W/m² | - |
| 1777812404 | 7.22° C | 64% | 1013.9 hPa | 0 mm | - | 165 W/m² | - |
| 1777812102 | 7.22° C | 66% | 1013.8 hPa | 0 mm | - | 350 W/m² | - |
| 1777811800 | 6.67° C | 68% | 1013.8 hPa | 0 mm | - | 318 W/m² | - |
| 1777811497 | 6.67° C | 68% | 1013.9 hPa | 0 mm | - | 276 W/m² | - |
| 1777811193 | 6.11° C | 71% | 1013.9 hPa | 0 mm | - | 262 W/m² | - |
| 1777810891 | 5.56° C | 71% | 1013.8 hPa | 0 mm | - | 175 W/m² | - |
| 1777810587 | 5° C | 72% | 1013.8 hPa | 0 mm | - | 170 W/m² | - |
| 1777810284 | 5° C | 73% | 1013.7 hPa | 0 mm | - | 134 W/m² | - |
| 1777809979 | 5° C | 74% | 1013.7 hPa | 0 mm | - | 114 W/m² | - |
| 1777809678 | 5° C | 74% | 1013.8 hPa | 0 mm | - | 114 W/m² | - |
| 1777809375 | 4.44° C | 74% | 1013.5 hPa | 0 mm | - | 102 W/m² | - |
| 1777809073 | 4.44° C | 74% | 1013.6 hPa | 0 mm | - | 92 W/m² | - |
| 1777808770 | 4.44° C | 75% | 1013.7 hPa | 0 mm | - | 83 W/m² | - |
| 1777808467 | 3.89° C | 75% | 1013.7 hPa | 0 mm | - | 81 W/m² | - |
| 1777808165 | 3.89° C | 75% | 1013.7 hPa | 0 mm | - | 83 W/m² | - |
| 1777807863 | 3.89° C | 76% | 1013.7 hPa | 0 mm | - | 70 W/m² | - |
| 1777807561 | 3.89° C | 76% | 1013.4 hPa | 0 mm | - | 66 W/m² | - |
| 1777807257 | 3.33° C | 77% | 1013.4 hPa | 0 mm | - | 66 W/m² | - |
| 1777806953 | 3.33° C | 77% | 1013.3 hPa | 0 mm | - | 58 W/m² | - |
* Rain latest hour (hover to see other rain measurements)
** Current wind speed in m/s (hover to see current wind gust speed)